O3b FM11

operational
NORAD ID: 40349 Int'l Des: 2014-083 Owner: O3B Country: UK
MEOCIRCULAR

About O3b FM11

Description loading...

Live Position

Loading 3D Globe...

Upcoming Passes

Altitude History

Altitude vs Time

uPlot chart will show altitude changes over time

Two-Line Element Set

1 40349U 14083B 26061.03068027 -.00000029 00000-0 00000+0 0 9998
2 40349 0.0565 0.5354 0003146 329.1254 30.3135 5.00115548204544
Epoch: Mar 2, 2026 • Age: 44 hours

Current Status

Altitude 8062.6 km
Velocity 5.25 km/s
Sub-Earth Point 0.03°N, 69.97°W
Launch Date Dec 18, 2014
Age 11.2 years
Type other

Technical Details

Classification Payload
Mass 700.00 kg
Dry Mass 500.00 kg
Total Mass 700.00 kg
Length 4.00 m
Diameter 2.00 m
Span 12.00 m
Shape Box trap+2 pan
Manufacturer THALR
Bus Type Prisma
Phase Status Renamed
Owner/State O3B/UK

Large Constellations

Loading constellations...